EW6604 Weather Reports


Display with metric or nautical units.
time (UTC)temp
F
wind
direction
speed
MPH
gust
MPH
rain 1hr
in
rain 24hr
in
rain mn
in
humidity
%
barometer
mb
20260507230713 90 279 6.0 10.0 0.00 0.00 0.00 37 1011.7
20260507230218 90 288 6.0 13.0 0.00 0.00 0.00 36 1011.6
20260507225722 91 255 7.0 13.0 0.00 0.00 0.00 35 1011.6
20260507225207 91 284 6.0 12.0 0.00 0.00 0.00 34 1011.5
20260507224710 91 275 6.0 12.0 0.00 0.00 0.00 35 1011.4
20260507224215 90 221 6.0 13.0 0.00 0.00 0.00 36 1011.4
20260507223738 91 284 7.0 11.0 0.00 0.00 0.00 35 1011.4
20260507223224 91 269 7.0 10.0 0.00 0.00 0.00 35 1011.4
20260507222727 91 270 6.0 12.0 0.00 0.00 0.00 36 1011.5
20260507222231 91 307 6.0 13.0 0.00 0.00 0.00 36 1011.4
20260507221715 91 279 8.0 14.0 0.00 0.00 0.00 34 1011.4
20260507221217 91 268 8.0 14.0 0.00 0.00 0.00 35 1011.4
20260507220720 91 276 7.0 14.0 0.00 0.00 0.00 35 1011.5
20260507220220 91 267 7.0 13.0 0.00 0.00 0.00 36 1011.5
20260507215708 91 271 8.0 15.0 0.00 0.00 0.00 34 1011.6
20260507215233 91 285 9.0 15.0 0.00 0.00 0.00 35 1011.5
20260507214716 91 268 8.0 13.0 0.00 0.00 0.00 34 1011.6
20260507214220 91 282 8.0 13.0 0.00 0.00 0.00 35 1011.5
20260507213722 91 281 7.0 13.0 0.00 0.00 0.00 35 1011.6
20260507213208 91 277 7.0 14.0 0.00 0.00 0.00 35 1011.6
20260507212712 91 265 9.0 14.0 0.00 0.00 0.00 36 1011.7
20260507212217 91 272 9.0 13.0 0.00 0.00 0.00 36 1011.6
20260507211721 91 268 8.0 14.0 0.00 0.00 0.00 41 1011.6
20260507211225 91 279 9.0 14.0 0.00 0.00 0.00 39 1011.7
20260507210730 92 273 9.0 17.0 0.00 0.00 0.00 41 1011.7
20260507210213 92 273 7.0 17.0 0.00 0.00 0.00 40 1011.7
20260507205718 92 295 11.0 17.0 0.00 0.00 0.00 40 1011.7
20260507205235 92 244 8.0 13.0 0.00 0.00 0.00 40 1011.9
20260507204723 92 278 7.0 14.0 0.00 0.00 0.00 40 1011.9
20260507204208 91 277 10.0 16.0 0.00 0.00 0.00 39 1011.9
20260507203713 92 283 11.0 18.0 0.00 0.00 0.00 38 1011.8
20260507203218 92 246 10.0 18.0 0.00 0.00 0.00 39 1011.9
20260507202724 92 276 12.0 17.0 0.00 0.00 0.00 42 1011.9
20260507202210 92 291 10.0 16.0 0.00 0.00 0.00 41 1011.9
20260507201715 93 267 8.0 20.0 0.00 0.00 0.00 38 1011.9
20260507201220 92 274 9.0 20.0 0.00 0.00 0.00 36 1011.9
20260507200718 93 263 11.0 19.0 0.00 0.00 0.00 37 1012.0
20260507200223 93 276 11.0 19.0 0.00 0.00 0.00 35 1012.1
20260507195729 93 279 8.0 16.0 0.00 0.00 0.00 36 1012.1
20260507195218 92 267 10.0 16.0 0.00 0.00 0.00 38 1012.1
20260507194724 93 281 10.0 17.0 0.00 0.00 0.00 33 1012.1
20260507194209 93 271 12.0 16.0 0.00 0.00 0.00 33 1012.1
20260507193714 94 298 9.0 17.0 0.00 0.00 0.00 33 1012.2
20260507193240 94 255 12.0 16.0 0.00 0.00 0.00 33 1012.2
20260507192725 93 281 11.0 17.0 0.00 0.00 0.00 34 1012.2
20260507192210 93 275 8.0 17.0 0.00 0.00 0.00 35 1012.2
20260507191732 94 205 8.0 15.0 0.00 0.00 0.00 40 1012.2
20260507191216 93 276 6.0 14.0 0.00 0.00 0.00 37 1012.2
20260507190721 93 274 5.0 13.0 0.00 0.00 0.00 41 1012.2
20260507190209 93 278 5.0 10.0 0.00 0.00 0.00 40 1012.3
20260507185713 93 284 6.0 11.0 0.00 0.00 0.00 41 1012.4
20260507185237 92 277 7.0 16.0 0.00 0.00 0.00 41 1012.5
20260507184707 93 276 8.0 16.0 0.00 0.00 0.00 39 1012.6
20260507184216 93 239 7.0 16.0 0.00 0.00 0.00 40 1012.8
20260507183722 93 268 6.0 16.0 0.00 0.00 0.00 41 1012.8
20260507183224 93 272 3.0 11.0 0.00 0.00 0.00 43 1012.9
20260507182707 92 125 4.0 10.0 0.00 0.00 0.00 45 1012.9
20260507182211 92 172 3.0 12.0 0.00 0.00 0.00 45 1013.0
20260507181714 92 205 4.0 12.0 0.00 0.00 0.00 46 1013.3
20260507181219 92 305 4.0 10.0 0.00 0.00 0.00 46 1013.3
20260507180732 92 276 4.0 10.0 0.00 0.00 0.00 46 1013.4
20260507180237 91 222 5.0 13.0 0.00 0.00 0.00 45 1013.7
20260507175726 91 280 6.0 13.0 0.00 0.00 0.00 46 1013.7
20260507175210 91 258 6.0 13.0 0.00 0.00 0.00 47 1013.8
20260507174715 90 267 4.0 18.0 0.00 0.00 0.00 48 1013.9
20260507174219 91 257 10.0 18.0 0.00 0.00 0.00 46 1014.0
20260507173707 90 284 5.0 13.0 0.00 0.00 0.00 46 1014.0
20260507173212 90 283 9.0 16.0 0.00 0.00 0.00 48 1014.1
20260507172737 90 266 8.0 18.0 0.00 0.00 0.00 48 1014.1
20260507172220 90 279 11.0 18.0 0.00 0.00 0.00 48 1014.1
20260507171725 89 281 5.0 11.0 0.00 0.00 0.00 50 1014.0
20260507171229 89 271 6.0 16.0 0.00 0.00 0.00 52 1014.1
20260507170713 89 284 10.0 15.0 0.00 0.00 0.00 52 1014.1
20260507170239 89 257 7.0 13.0 0.00 0.00 0.00 52 1014.1
20260507165719 89 286 6.0 13.0 0.00 0.00 0.00 52 1014.1
20260507165223 89 284 9.0 16.0 0.00 0.00 0.00 52 1014.0
20260507164707 89 276 8.0 14.0 0.00 0.00 0.00 53 1014.0
20260507164212 89 289 3.0 10.0 0.00 0.00 0.00 54 1014.1
20260507163716 89 247 4.0 10.0 0.00 0.00 0.00 53 1014.1
20260507163241 89 286 4.0 12.0 0.00 0.00 0.00 54 1014.2
20260507162743 89 278 6.0 12.0 0.00 0.00 0.00 54 1014.1
20260507162211 89 239 2.0 7.0 0.00 0.00 0.00 55 1014.2
20260507161715 88 191 3.0 9.0 0.00 0.00 0.00 55 1014.1
20260507161216 88 205 3.0 13.0 0.00 0.00 0.00 55 1014.2
20260507160729 88 286 8.0 13.0 0.00 0.00 0.00 55 1014.2
20260507160223 88 279 4.0 13.0 0.00 0.00 0.00 56 1014.3
20260507155725 88 194 4.0 10.0 0.00 0.00 0.00 55 1014.3
20260507155247 87 182 3.0 10.0 0.00 0.00 0.00 55 1014.3
20260507154712 87 61 4.0 12.0 0.00 0.00 0.00 56 1014.4
20260507154216 87 257 3.0 11.0 0.00 0.00 0.00 56 1014.4
20260507153721 87 132 4.0 11.0 0.00 0.00 0.00 56 1014.5
20260507153225 87 307 4.0 9.0 0.00 0.00 0.00 57 1014.6
20260507152729 87 109 3.0 9.0 0.00 0.00 0.00 56 1014.4
20260507152212 87 170 4.0 11.0 0.00 0.00 0.00 54 1014.4
20260507151717 86 58 3.0 11.0 0.00 0.00 0.00 54 1014.6
20260507151222 86 194 3.0 10.0 0.00 0.00 0.00 55 1014.5
20260507150725 86 288 2.0 7.0 0.00 0.00 0.00 57 1014.6
20260507150210 86 290 3.0 7.0 0.00 0.00 0.00 57 1014.6
20260507145712 86 301 1.0 6.0 0.00 0.00 0.00 59 1014.7
20260507145216 85 196 3.0 6.0 0.00 0.00 0.00 58 1014.8
20260507144725 85 132 2.0 6.0 0.00 0.00 0.00 59 1014.7
20260507144210 85 151 1.0 7.0 0.00 0.00 0.00 59 1014.7
20260507143712 85 86 2.0 7.0 0.00 0.00 0.00 60 1014.8
20260507143216 84 88 2.0 7.0 0.00 0.00 0.00 62 1014.8
20260507142740 84 224 2.0 6.0 0.00 0.00 0.00 63 1015.0
20260507142225 83 210 2.0 6.0 0.00 0.00 0.00 63 1015.0
20260507141709 83 269 2.0 7.0 0.00 0.00 0.00 65 1015.0
20260507141230 83 191 3.0 7.0 0.00 0.00 0.00 66 1015.1
20260507140713 83 340 2.0 7.0 0.00 0.00 0.00 66 1015.1
20260507140217 82 148 2.0 8.0 0.00 0.00 0.00 68 1015.1
20260507135742 82 239 3.0 8.0 0.00 0.00 0.00 67 1014.9
20260507135221 82 155 2.0 6.0 0.00 0.00 0.00 69 1014.9
20260507134745 81 191 2.0 8.0 0.00 0.00 0.00 70 1014.9
20260507134208 81 158 3.0 8.0 0.00 0.00 0.00 70 1015.0
20260507133710 81 127 1.0 6.0 0.00 0.00 0.00 70 1015.0
20260507133219 81 146 2.0 6.0 0.00 0.00 0.00 70 1015.1
20260507132724 80 238 1.0 4.0 0.00 0.00 0.00 71 1015.1
20260507132207 80 108 1.0 5.0 0.00 0.00 0.00 72 1015.1
20260507131710 80 226 1.0 6.0 0.00 0.00 0.00 73 1015.2
20260507131213 79 163 2.0 6.0 0.00 0.00 0.00 73 1015.1
20260507130739 79 150 1.0 5.0 0.00 0.00 0.00 75 1015.1
20260507130223 78 94 1.0 6.0 0.00 0.00 0.00 76 1015.0
20260507125727 77 176 1.0 6.0 0.00 0.00 0.00 76 1015.1
20260507125211 77 182 2.0 6.0 0.00 0.00 0.00 76 1015.1
20260507124715 77 165 2.0 4.0 0.00 0.00 0.00 77 1015.2
20260507124218 77 178 1.0 5.0 0.00 0.00 0.00 77 1015.2
20260507123708 76 163 2.0 5.0 0.00 0.00 0.00 77 1015.1
20260507123212 76 130 1.0 4.0 0.00 0.00 0.00 78 1015.1
20260507122717 76 139 2.0 4.0 0.00 0.00 0.00 78 1015.2
20260507122241 75 158 1.0 3.0 0.00 0.00 0.00 79 1015.2
20260507121724 75 181 1.0 3.0 0.00 0.00 0.00 79 1015.2
20260507121226 74 198 0.0 2.0 0.00 0.00 0.00 81 1015.1
20260507120730 73 187 1.0 3.0 0.00 0.00 0.00 81 1015.1
20260507120210 73 187 1.0 3.0 0.00 0.00 0.00 82 1015.1
20260507115732 73 188 1.0 3.0 0.00 0.00 0.00 81 1015.0
20260507115236 73 186 1.0 3.0 0.00 0.00 0.00 81 1015.1
20260507114721 73 215 0.0 2.0 0.00 0.00 0.00 82 1015.1
20260507114224 72 195 0.0 2.0 0.00 0.00 0.00 84 1015.1
20260507113710 71 182 0.0 1.0 0.00 0.00 0.00 86 1015.0
20260507113236 70 170 0.0 1.0 0.00 0.00 0.00 86 1015.0
20260507112720 70 181 0.0 0.0 0.00 0.00 0.00 86 1015.0
20260507112244 69 181 0.0 0.0 0.00 0.00 0.00 86 1015.0
20260507111708 69 181 0.0 0.0 0.00 0.00 0.00 85 1015.0
20260507111216 69 181 0.0 0.0 0.00 0.00 0.00 86 1015.0
20260507110721 69 182 0.0 0.0 0.00 0.00 0.00 86 1015.0
20260507110246 68 181 0.0 0.0 0.00 0.00 0.00 86 1015.0
20260507105710 68 181 0.0 0.0 0.00 0.00 0.00 86 1014.8
20260507105214 68 181 0.0 0.0 0.00 0.00 0.00 85 1014.8
20260507104718 69 181 0.0 0.0 0.00 0.00 0.00 85 1014.9
20260507104219 69 181 0.0 0.0 0.00 0.00 0.00 85 1014.9
20260507103210 69 182 0.0 0.0 0.00 0.00 0.00 84 1014.7
20260507102713 69 181 0.0 3.0 0.00 0.00 0.00 84 1014.6
20260507102217 69 181 0.0 3.0 0.00 0.00 0.00 84 1014.4
20260507101721 69 209 0.0 1.0 0.00 0.00 0.00 84 1014.5
20260507101223 69 263 0.0 1.0 0.00 0.00 0.00 83 1014.5
20260507100713 69 263 0.0 2.0 0.00 0.00 0.00 84 1014.5
20260507100234 69 203 0.0 2.0 0.00 0.00 0.00 84 1014.4
20260507095223 69 192 0.0 1.0 0.00 0.00 0.00 84 1014.4
20260507094707 69 184 0.0 1.0 0.00 0.00 0.00 84 1014.2
20260507094211 69 203 0.0 2.0 0.00 0.00 0.00 84 1014.3
20260507093716 69 209 0.0 2.0 0.00 0.00 0.00 84 1014.3
20260507093222 69 147 0.0 2.0 0.00 0.00 0.00 85 1014.3
20260507092726 69 191 0.0 4.0 0.00 0.00 0.00 84 1014.1
20260507092211 68 158 1.0 4.0 0.00 0.00 0.00 85 1014.1
20260507091735 68 186 0.0 1.0 0.00 0.00 0.00 85 1014.1
20260507091219 68 192 0.0 1.0 0.00 0.00 0.00 85 1014.2
20260507090708 68 183 0.0 2.0 0.00 0.00 0.00 85 1014.2
20260507090213 68 183 0.0 2.0 0.00 0.00 0.00 85 1014.1
20260507085717 68 219 0.0 2.0 0.00 0.00 0.00 85 1014.1
20260507085220 68 211 0.0 1.0 0.00 0.00 0.00 85 1014.0
20260507084725 68 210 0.0 1.0 0.00 0.00 0.00 85 1013.9
20260507084210 68 149 0.0 1.0 0.00 0.00 0.00 84 1013.9
20260507083715 69 147 0.0 0.0 0.00 0.00 0.00 84 1014.0
20260507083219 69 147 0.0 0.0 0.00 0.00 0.00 85 1014.1
20260507082724 69 147 0.0 0.0 0.00 0.00 0.00 85 1014.0
20260507082207 69 147 0.0 0.0 0.00 0.00 0.00 85 1014.0
20260507081716 69 147 0.0 0.0 0.00 0.00 0.00 85 1014.0
20260507081220 69 147 0.0 0.0 0.00 0.00 0.00 85 1014.2
20260507080714 70 147 0.0 0.0 0.00 0.00 0.00 84 1014.1
20260507080220 70 147 0.0 0.0 0.00 0.00 0.00 84 1014.2
20260507075725 70 147 0.0 0.0 0.00 0.00 0.00 84 1014.3
20260507075208 70 147 0.0 0.0 0.00 0.00 0.00 84 1014.3
20260507074711 70 147 0.0 0.0 0.00 0.00 0.00 84 1014.4
20260507074216 70 147 0.0 0.0 0.00 0.00 0.00 84 1014.2
20260507073720 70 147 0.0 0.0 0.00 0.00 0.00 83 1014.3
20260507073226 70 147 0.0 0.0 0.00 0.00 0.00 83 1014.2
20260507072730 70 147 0.0 2.0 0.00 0.00 0.00 83 1014.1
20260507072212 70 149 0.0 2.0 0.00 0.00 0.00 83 1014.1
20260507071721 70 149 0.0 2.0 0.00 0.00 0.00 82 1014.2
20260507071217 70 159 1.0 2.0 0.00 0.00 0.00 82 1014.3
20260507070721 70 146 1.0 2.0 0.00 0.00 0.00 81 1014.3
20260507070244 70 132 0.0 1.0 0.00 0.00 0.00 81 1014.4
20260507065707 70 210 0.0 0.0 0.00 0.00 0.00 81 1014.6
20260507065212 70 210 0.0 1.0 0.00 0.00 0.00 81 1014.6
20260507064716 70 210 0.0 1.0 0.00 0.00 0.00 80 1014.7
20260507064241 71 211 0.0 2.0 0.00 0.00 0.00 80 1014.6
20260507063725 71 151 0.0 2.0 0.00 0.00 0.00 80 1014.6
20260507063211 71 176 0.0 1.0 0.00 0.00 0.00 79 1014.6
20260507062715 71 176 0.0 1.0 0.00 0.00 0.00 79 1014.7
20260507062221 71 176 0.0 2.0 0.00 0.00 0.00 79 1014.8
20260507061710 71 177 0.0 2.0 0.00 0.00 0.00 78 1014.9
20260507061215 71 172 0.0 1.0 0.00 0.00 0.00 78 1015.0
20260507060711 71 173 0.0 1.0 0.00 0.00 0.00 78 1015.2
20260507060237 71 185 0.0 0.0 0.00 0.00 0.00 78 1015.3
20260507055720 71 185 0.0 0.0 0.00 0.00 0.00 78 1015.4
20260507055224 71 185 0.0 0.0 0.00 0.00 0.00 78 1015.5
20260507054708 71 185 0.0 0.0 0.00 0.00 0.00 78 1015.6
20260507054212 71 185 0.0 0.0 0.00 0.00 0.00 77 1015.5
20260507053717 71 185 0.0 0.0 0.00 0.00 0.00 77 1015.6
20260507053220 72 185 0.0 0.0 0.00 0.00 0.00 77 1015.6
20260507052725 72 186 0.0 0.0 0.00 0.00 0.00 77 1015.6
20260507052209 72 185 0.0 0.0 0.00 0.00 0.00 77 1015.6
20260507051718 72 185 0.0 1.0 0.00 0.00 0.00 77 1015.6
20260507051241 72 185 0.0 1.0 0.00 0.00 0.00 76 1015.5
20260507050745 72 186 0.0 0.0 0.00 0.00 0.00 76 1015.5
20260507050208 72 186 0.0 0.0 0.00 0.00 0.00 76 1015.6
20260507045709 72 186 0.0 0.0 0.00 0.00 0.00 75 1015.7
20260507045234 72 186 0.0 0.0 0.00 0.00 0.00 75 1015.6
20260507044738 72 186 0.0 1.0 0.00 0.00 0.00 75 1015.5
20260507044240 72 185 0.0 1.0 0.00 0.00 0.00 76 1015.6
20260507043721 72 148 0.0 1.0 0.00 0.00 0.00 75 1015.5
20260507043207 72 148 0.0 0.0 0.00 0.00 0.00 75 1015.5
20260507042712 72 147 0.0 1.0 0.00 0.00 0.00 75 1015.4
20260507042217 72 139 0.0 1.0 0.00 0.00 0.00 74 1015.5
20260507041722 73 191 0.0 1.0 0.00 0.00 0.00 74 1015.5
20260507041207 73 191 0.0 0.0 0.00 0.00 0.00 73 1015.6
20260507040713 73 191 0.0 1.0 0.00 0.00 0.00 73 1015.6
20260507040224 74 191 0.0 2.0 0.00 0.00 0.00 72 1015.6
20260507035708 74 191 0.0 2.0 0.00 0.00 0.00 72 1015.7
20260507035213 74 241 0.0 1.0 0.00 0.00 0.00 71 1015.8
20260507034717 75 243 0.0 2.0 0.00 0.00 0.00 71 1015.8
20260507034222 75 244 0.0 4.0 0.00 0.00 0.00 70 1015.7
20260507033747 75 198 1.0 4.0 0.00 0.00 0.00 70 1015.6
20260507033230 75 167 1.0 4.0 0.00 0.00 0.00 70 1015.7
20260507032713 75 143 0.0 6.0 0.00 0.00 0.00 71 1015.6
20260507032218 74 132 1.0 6.0 0.00 0.00 0.00 72 1015.5
20260507031723 74 179 1.0 2.0 0.00 0.00 0.00 72 1015.5
20260507031207 75 195 0.0 2.0 0.00 0.00 0.00 72 1015.4
20260507030712 75 184 1.0 2.0 0.00 0.00 0.00 73 1015.4
20260507030219 74 187 0.0 2.0 0.00 0.00 0.00 73 1015.6
20260507025723 75 196 1.0 2.0 0.00 0.00 0.00 73 1015.5
20260507025226 75 198 0.0 2.0 0.00 0.00 0.00 74 1015.5
20260507024731 75 159 0.0 2.0 0.00 0.00 0.00 74 1015.5
20260507024213 75 151 0.0 1.0 0.00 0.00 0.00 74 1015.5
20260507023717 75 162 0.0 1.0 0.00 0.00 0.00 74 1015.5
20260507023221 75 141 0.0 1.0 0.00 0.00 0.00 75 1015.5
20260507022726 75 214 0.0 1.0 0.00 0.00 0.00 75 1015.5
20260507022211 75 118 0.0 2.0 0.00 0.00 0.00 76 1015.4
20260507021717 75 194 0.0 2.0 0.00 0.00 0.00 76 1015.4
20260507021220 75 113 0.0 1.0 0.00 0.00 0.00 76 1015.4
20260507020720 75 106 0.0 0.0 0.00 0.00 0.00 76 1015.3
20260507020227 76 106 0.0 0.0 0.00 0.00 0.00 75 1015.4
20260507015720 76 106 0.0 0.0 0.00 0.00 0.00 75 1015.4
20260507015225 76 106 0.0 0.0 0.00 0.00 0.00 74 1015.3
20260507014731 76 106 0.0 1.0 0.00 0.00 0.00 73 1015.4
20260507014214 77 106 0.0 2.0 0.00 0.00 0.00 73 1015.4
20260507013723 77 122 1.0 2.0 0.00 0.00 0.00 73 1015.5
20260507013208 77 101 0.0 1.0 0.00 0.00 0.00 73 1015.5
20260507012712 77 205 0.0 1.0 0.00 0.00 0.00 72 1015.4
20260507012217 77 205 0.0 1.0 0.00 0.00 0.00 72 1015.3
20260507011722 77 205 1.0 1.0 0.00 0.00 0.00 72 1015.4
20260507011225 77 203 0.0 2.0 0.00 0.00 0.00 70 1015.2
20260507010710 78 203 0.0 2.0 0.00 0.00 0.00 70 1015.0
20260507010215 78 163 0.0 1.0 0.00 0.00 0.00 70 1014.8
20260507005719 78 127 0.0 1.0 0.00 0.00 0.00 69 1014.8
20260507005224 78 119 0.0 2.0 0.00 0.00 0.00 69 1014.8
20260507004708 79 189 0.0 3.0 0.00 0.00 0.00 68 1014.5
20260507004231 79 113 1.0 3.0 0.00 0.00 0.00 67 1014.5
20260507003718 79 115 1.0 5.0 0.00 0.00 0.00 66 1014.3
20260507003223 80 106 1.0 5.0 0.00 0.00 0.00 66 1014.4
20260507002727 80 104 1.0 8.0 0.00 0.00 0.00 65 1014.4
20260507002210 80 114 2.0 8.0 0.00 0.00 0.00 65 1014.4
20260507001713 81 101 3.0 7.0 0.00 0.00 0.00 65 1014.4
20260507001218 81 94 2.0 7.0 0.00 0.00 0.00 64 1014.3
20260507000710 81 94 1.0 7.0 0.00 0.00 0.00 64 1014.3
20260507000216 82 85 2.0 6.0 0.00 0.00 0.00 64 1014.2
20260506235720 82 101 2.0 6.0 0.00 0.00 0.00 63 1014.2
20260506235224 82 82 2.0 6.0 0.00 0.00 0.00 63 1014.2
20260506234709 83 95 2.0 6.0 0.00 0.00 0.00 63 1014.1
20260506234216 83 81 2.0 8.0 0.00 0.00 0.00 62 1014.1
20260506233721 84 108 4.0 8.0 0.00 0.00 0.00 62 1014.1
20260506233224 84 89 2.0 10.0 0.00 0.00 0.00 63 1014.0
20260506232725 84 90 4.0 12.0 0.00 0.00 0.00 62 1014.2
20260506232210 84 108 4.0 9.0 0.00 0.00 0.00 62 1014.3
20260506231735 85 101 3.0 9.0 0.00 0.00 0.00 62 1014.3
20260506231219 85 105 4.0 11.0 0.00 0.00 0.00 61 1014.3